Weather in Karshi

Uzbekistan     38˚50′29″N   65˚47′24″E
temp.,
°C
wind,
m/s
gust,
m/s
humid.,
%
clouds,
%
prec.,
mm/h
press.,
hPa
HPBL,
m
3 december, thu
thu323:00+7˚nnw375386 0.0 1026157
02:00+4˚nnw236055 0.0 102729
05:00+3˚n236528 0.0 102836
08:00+3˚n236663 0.0 102834
11:00+8˚n234982 0.0 1028270
14:00+11˚nnw334098 0.0 1026536
17:00+10˚nnw354199 0.0 1027164
20:00+7˚nw3444100 0.0 1027150
4 december, fri
fri423:00+6˚nnw3443100 0.0 1027126
02:00+4˚nnw2248100 0.0 102750
05:00+2˚nnw235091 0.0 102841
08:00+2˚wnw335095 0.0 102977
11:00+6˚nw342885 0.0 1030339
14:00+10˚nw441888 0.0 1028773
17:00+7˚nw352144 0.0 1028128
20:00+3˚nnw35270 0.0 1030106
5 december, sat
sat523:00+1˚n23320 0.0 103034
02:00nne23310 0.0 102926
05:00nne23310 0.0 102924
08:00−1˚n23310 0.0 102925
11:00+5˚n22210 0.0 1029297
14:00+8˚nnw22180 0.0 1026643
17:00+6˚n34180 0.0 102651
20:00+2˚n341919 0.0 102780
6 december, sun
sun623:00+1˚nne232417 0.0 102724
02:00nne23240 0.0 102722
05:00nne23250 0.0 102722
08:00ne23251 0.0 102822
11:00+7˚ne23221 0.0 1027274
14:00+11˚n332615 0.0 1024652
17:00+8˚nne463052 0.0 1023101
20:00+6˚n4623100 0.0 1023151
7 december, mon
mon723:00+6˚nnw3533100 0.0 1023131
02:00+6˚nnw3536100 0.0 1023138
05:00+5˚nw3439100 0.1 1023163
08:00+3˚nw4676100 0.9 1026207
11:00+3˚nw3560100 2.1 1027363
14:00+3˚n2275100 0.0 1027385
17:00+3˚nnw354798 0.1 1028318
20:00+2˚nw224787 0.0 103046